TimeCDT,TemperatureF,Dew PointF,Humidity,Sea Level PressureIn,VisibilityMPH,Wind Direction,Wind SpeedMPH,Gust SpeedMPH,PrecipitationIn,Events,Conditions,WindDirDegrees,DateUTC
12:53 AM,41.0,35.1,79,30.30,10.0,Calm,Calm,-,N/A,,Clear,0,2013-03-29 05:53:00
1:53 AM,39.9,35.1,83,30.30,10.0,Calm,Calm,-,N/A,,Clear,0,2013-03-29 06:53:00
2:53 AM,39.9,36.0,86,30.30,10.0,Calm,Calm,-,N/A,,Clear,0,2013-03-29 07:53:00
3:53 AM,37.9,35.1,89,30.29,9.0,Calm,Calm,-,N/A,,Clear,0,2013-03-29 08:53:00
4:53 AM,37.0,34.0,89,30.29,8.0,Calm,Calm,-,N/A,,Clear,0,2013-03-29 09:53:00
5:53 AM,36.0,33.1,89,30.30,8.0,Calm,Calm,-,N/A,,Clear,0,2013-03-29 10:53:00
6:53 AM,36.0,33.1,89,30.31,5.0,Calm,Calm,-,N/A,,Clear,0,2013-03-29 11:53:00
7:53 AM,42.1,39.0,89,30.32,7.0,Calm,Calm,-,N/A,,Clear,0,2013-03-29 12:53:00
8:53 AM,54.0,39.0,57,30.32,10.0,Calm,Calm,-,N/A,,Clear,0,2013-03-29 13:53:00
9:53 AM,64.0,34.0,33,30.33,10.0,SSE,5.8,-,N/A,,Clear,150,2013-03-29 14:53:00
10:53 AM,68.0,32.0,26,30.33,10.0,SSW,5.8,-,N/A,,Clear,210,2013-03-29 15:53:00
11:53 AM,69.1,30.0,23,30.30,10.0,SW,5.8,-,N/A,,Clear,220,2013-03-29 16:53:00
12:53 PM,72.0,32.0,23,30.26,10.0,West,9.2,-,N/A,,Clear,270,2013-03-29 17:53:00
1:53 PM,72.0,30.9,22,30.23,10.0,Variable,4.6,-,N/A,,Clear,0,2013-03-29 18:53:00
2:53 PM,73.9,33.1,22,30.20,10.0,West,5.8,-,N/A,,Clear,280,2013-03-29 19:53:00
3:53 PM,75.0,33.1,22,30.19,10.0,SW,12.7,-,N/A,,Clear,220,2013-03-29 20:53:00
4:53 PM,73.9,33.1,22,30.17,10.0,SSW,11.5,16.1,N/A,,Clear,210,2013-03-29 21:53:00
5:53 PM,71.1,30.0,22,30.18,10.0,SW,15.0,25.3,N/A,,Clear,220,2013-03-29 22:53:00
6:53 PM,66.9,30.0,25,30.19,10.0,SW,10.4,-,N/A,,Clear,220,2013-03-29 23:53:00
7:53 PM,63.0,30.9,30,30.20,10.0,SW,10.4,-,N/A,,Clear,220,2013-03-30 00:53:00
8:53 PM,61.0,33.1,35,30.22,10.0,SW,8.1,-,N/A,,Mostly Cloudy,220,2013-03-30 01:53:00
9:53 PM,60.1,36.0,41,30.23,10.0,SSW,5.8,-,N/A,,Overcast,210,2013-03-30 02:53:00
10:53 PM,57.0,41.0,55,30.23,10.0,SW,3.5,-,N/A,,Mostly Cloudy,220,2013-03-30 03:53:00
11:53 PM,53.1,42.1,66,30.23,10.0,Calm,Calm,-,N/A,,Clear,0,2013-03-30 04:53:00